{"data":{"norad_id":47730,"epoch":"2026-05-25T04:50:00.857184Z","epoch_age_seconds":67705,"freshness":"FRESH","line1":"1 47730U 21017J   26145.20139881  .00005410  00000+0  18581-3 0  9997","line2":"2 47730  53.1591 221.1094 0001097  83.1654 276.9472 15.31728479289373","mean_motion":15.31728479,"eccentricity":0.0001097,"inclination_deg":53.1591,"raan_deg":221.1094,"arg_perigee_deg":83.1654,"mean_anomaly_deg":276.9472,"bstar":0.00018581,"rev_number":28937,"period_min":94.011440000131,"perigee_km":469.90378963032,"apogee_km":471.40641461753,"semimajor_km":6848.7921021239,"source":"CELESTRAK","updated_at":"2026-05-25T13:38:16.564775Z"}}